TimeCDT,TemperatureF,Dew PointF,Humidity,Sea Level PressureIn,VisibilityMPH,Wind Direction,Wind SpeedMPH,Gust SpeedMPH,PrecipitationIn,Events,Conditions,WindDirDegrees,DateUTC
12:15 AM,61.0,53.2,76,30.05,10.0,Calm,Calm,-,N/A,,Overcast,0,2013-07-25 05:15:00
12:35 AM,60.4,53.8,79,30.04,10.0,Calm,Calm,-,N/A,,Overcast,0,2013-07-25 05:35:00
12:55 AM,60.1,54.0,80,30.04,10.0,Calm,Calm,-,N/A,,Overcast,0,2013-07-25 05:55:00
1:15 AM,59.7,53.6,80,30.03,10.0,Calm,Calm,-,N/A,,Overcast,0,2013-07-25 06:15:00
1:35 AM,59.9,54.0,81,30.03,10.0,Calm,Calm,-,N/A,,Mostly Cloudy,0,2013-07-25 06:35:00
1:55 AM,59.7,53.2,79,30.03,10.0,Calm,Calm,-,N/A,,Mostly Cloudy,0,2013-07-25 06:55:00
2:15 AM,58.5,53.4,83,30.03,10.0,Calm,Calm,-,N/A,,Scattered Clouds,0,2013-07-25 07:15:00
2:35 AM,56.8,52.3,85,30.03,10.0,Calm,Calm,-,N/A,,Clear,0,2013-07-25 07:35:00
2:55 AM,56.3,52.7,88,30.03,10.0,Calm,Calm,-,N/A,,Clear,0,2013-07-25 07:55:00
3:15 AM,55.8,52.3,88,30.03,10.0,Calm,Calm,-,N/A,,Clear,0,2013-07-25 08:15:00
3:35 AM,54.3,51.1,89,30.04,10.0,Calm,Calm,-,N/A,,Clear,0,2013-07-25 08:35:00
3:55 AM,55.4,52.7,91,30.03,10.0,Calm,Calm,-,N/A,,Clear,0,2013-07-25 08:55:00
4:15 AM,54.1,51.8,92,30.04,10.0,Calm,Calm,-,N/A,,Clear,0,2013-07-25 09:15:00
4:35 AM,54.7,52.5,92,30.03,10.0,Calm,Calm,-,N/A,,Clear,0,2013-07-25 09:35:00
4:55 AM,54.5,52.0,91,30.03,10.0,Calm,Calm,-,N/A,,Clear,0,2013-07-25 09:55:00
5:15 AM,53.8,51.3,91,30.04,10.0,Calm,Calm,-,N/A,,Clear,0,2013-07-25 10:15:00
5:35 AM,53.6,51.1,91,30.04,10.0,Calm,Calm,-,N/A,,Clear,0,2013-07-25 10:35:00
5:55 AM,53.8,51.4,92,30.04,10.0,Calm,Calm,-,N/A,,Clear,0,2013-07-25 10:55:00
6:15 AM,54.7,52.5,92,30.04,10.0,Calm,Calm,-,N/A,,Clear,0,2013-07-25 11:15:00
6:35 AM,56.5,53.4,89,30.05,10.0,Calm,Calm,-,N/A,,Clear,0,2013-07-25 11:35:00
6:55 AM,57.7,53.8,87,30.05,10.0,Calm,Calm,-,N/A,,Clear,0,2013-07-25 11:55:00
7:15 AM,60.4,54.3,80,30.05,10.0,SSW,4.6,-,N/A,,Clear,200,2013-07-25 12:15:00
7:35 AM,64.0,54.5,71,30.05,10.0,South,5.8,-,N/A,,Clear,180,2013-07-25 12:35:00
7:55 AM,65.1,54.3,68,30.05,10.0,South,5.8,-,N/A,,Clear,190,2013-07-25 12:55:00
8:15 AM,67.3,54.9,64,30.05,10.0,South,6.9,-,N/A,,Clear,190,2013-07-25 13:15:00
8:35 AM,69.4,55.2,60,30.05,10.0,SSW,8.1,-,N/A,,Clear,210,2013-07-25 13:35:00
8:55 AM,70.7,56.1,60,30.05,10.0,South,6.9,-,N/A,,Clear,190,2013-07-25 13:55:00
9:15 AM,73.6,55.9,54,30.05,10.0,South,9.2,-,N/A,,Scattered Clouds,180,2013-07-25 14:15:00
9:35 AM,72.9,55.9,55,30.04,10.0,SSW,6.9,-,N/A,,Mostly Cloudy,200,2013-07-25 14:35:00
9:55 AM,74.8,56.3,52,30.04,10.0,South,8.1,-,N/A,,Scattered Clouds,180,2013-07-25 14:55:00
10:15 AM,76.5,56.3,50,30.04,10.0,SSW,8.1,-,N/A,,Mostly Cloudy,200,2013-07-25 15:15:00
10:35 AM,76.5,56.7,50,30.04,10.0,South,9.2,-,N/A,,Mostly Cloudy,190,2013-07-25 15:35:00
10:55 AM,75.4,57.0,53,30.04,10.0,SSW,8.1,-,N/A,,Mostly Cloudy,210,2013-07-25 15:55:00
11:15 AM,76.1,57.7,53,30.03,10.0,SSW,8.1,-,N/A,,Mostly Cloudy,200,2013-07-25 16:15:00
11:35 AM,77.9,57.9,50,30.03,10.0,South,9.2,-,N/A,,Scattered Clouds,190,2013-07-25 16:35:00
11:55 AM,79.2,57.7,48,30.03,10.0,SSW,12.7,16.1,N/A,,Clear,210,2013-07-25 16:55:00
12:15 PM,80.2,57.7,46,30.02,10.0,SSW,10.4,16.1,N/A,,Scattered Clouds,210,2013-07-25 17:15:00
12:35 PM,81.5,57.9,44,30.01,10.0,SSW,12.7,-,N/A,,Scattered Clouds,200,2013-07-25 17:35:00
12:55 PM,81.5,58.1,45,30.01,10.0,SSW,12.7,17.3,N/A,,Scattered Clouds,200,2013-07-25 17:55:00
1:15 PM,83.5,56.7,40,30.01,10.0,SW,12.7,21.9,N/A,,Mostly Cloudy,230,2013-07-25 18:15:00
1:35 PM,81.5,57.6,44,30.01,10.0,SSW,11.5,16.1,N/A,,Overcast,210,2013-07-25 18:35:00
1:55 PM,80.2,57.6,46,30.00,10.0,SSW,12.7,-,N/A,,Overcast,200,2013-07-25 18:55:00
2:15 PM,82.4,57.6,43,29.99,10.0,SW,13.8,19.6,N/A,,Mostly Cloudy,220,2013-07-25 19:15:00
2:35 PM,81.7,57.2,43,29.98,10.0,South,13.8,21.9,N/A,,Mostly Cloudy,190,2013-07-25 19:35:00
2:55 PM,82.9,57.4,42,29.97,10.0,South,11.5,17.3,N/A,,Mostly Cloudy,190,2013-07-25 19:55:00
3:15 PM,81.3,58.1,45,29.97,10.0,SSW,11.5,-,N/A,,Mostly Cloudy,200,2013-07-25 20:15:00
3:35 PM,81.0,58.6,46,29.97,10.0,South,15.0,19.6,N/A,,Overcast,180,2013-07-25 20:35:00
3:55 PM,83.7,58.3,42,29.97,10.0,SSW,13.8,26.5,N/A,,Mostly Cloudy,210,2013-07-25 20:55:00
4:15 PM,81.7,58.5,45,29.96,10.0,SSW,17.3,21.9,N/A,,Scattered Clouds,200,2013-07-25 21:15:00
4:35 PM,81.0,59.7,48,29.96,10.0,SSW,11.5,20.7,N/A,,Scattered Clouds,200,2013-07-25 21:35:00
4:55 PM,79.0,60.6,53,29.96,10.0,SSW,10.4,19.6,N/A,,Clear,200,2013-07-25 21:55:00
5:15 PM,78.1,61.7,57,29.96,10.0,South,11.5,17.3,N/A,,Scattered Clouds,190,2013-07-25 22:15:00
5:35 PM,77.4,61.9,59,29.96,10.0,SSW,10.4,-,N/A,Rain,Light Rain,200,2013-07-25 22:35:00
5:55 PM,75.4,62.8,65,29.96,10.0,SSW,11.5,-,N/A,,Mostly Cloudy,200,2013-07-25 22:55:00
6:15 PM,76.3,61.9,61,29.96,10.0,SW,11.5,18.4,N/A,,Scattered Clouds,220,2013-07-25 23:15:00
6:35 PM,76.3,62.2,62,29.97,10.0,SSW,8.1,-,N/A,,Scattered Clouds,210,2013-07-25 23:35:00
6:55 PM,75.9,62.6,63,29.98,10.0,SW,16.1,25.3,N/A,Rain,Light Rain,220,2013-07-25 23:55:00
7:15 PM,72.7,63.7,73,29.98,10.0,SW,13.8,19.6,N/A,Rain,Light Rain,230,2013-07-26 00:15:00
7:35 PM,70.2,64.9,83,29.98,7.0,SSW,9.2,-,N/A,Rain,Rain,210,2013-07-26 00:35:00
7:55 PM,69.6,65.7,87,29.96,10.0,SSW,8.1,-,0.01,Rain,Light Rain,200,2013-07-26 00:55:00
8:15 PM,69.6,65.5,87,29.93,10.0,South,6.9,-,N/A,Rain,Light Rain,180,2013-07-26 01:15:00
8:35 PM,69.4,65.7,88,29.96,10.0,SW,6.9,-,N/A,,Mostly Cloudy,230,2013-07-26 01:35:00
8:55 PM,68.7,64.8,87,29.96,10.0,SW,5.8,-,N/A,,Scattered Clouds,220,2013-07-26 01:55:00
9:15 PM,67.8,63.7,87,29.96,10.0,SSW,4.6,-,N/A,,Clear,210,2013-07-26 02:15:00
9:35 PM,67.5,64.4,90,29.97,10.0,SSW,6.9,-,N/A,,Clear,200,2013-07-26 02:35:00
9:55 PM,67.3,64.2,90,29.97,10.0,South,6.9,-,N/A,,Scattered Clouds,190,2013-07-26 02:55:00
10:15 PM,66.2,63.1,90,29.96,10.0,South,5.8,-,N/A,,Clear,190,2013-07-26 03:15:00
10:35 PM,65.7,62.8,90,29.97,10.0,South,4.6,-,N/A,,Clear,180,2013-07-26 03:35:00
10:55 PM,65.7,63.0,91,29.97,10.0,SSW,3.5,-,N/A,,Clear,200,2013-07-26 03:55:00
11:15 PM,65.7,63.0,91,29.97,10.0,Calm,Calm,-,N/A,,Scattered Clouds,0,2013-07-26 04:15:00
11:35 PM,65.3,62.2,90,29.97,10.0,SW,3.5,-,N/A,,Mostly Cloudy,220,2013-07-26 04:35:00
11:55 PM,64.6,61.7,90,29.96,10.0,SSW,3.5,-,N/A,,Mostly Cloudy,210,2013-07-26 04:55:00